Regional Weather Roundup
Issued by NWS

Home | Current Version | Previous Version | Graphics & Text | Print | Product List | Glossary On
Versions: 1 2 3 4 5 6 7 8 9 10 11 12 13 14 15 16 17 18 19 20 21 22 23 24 25 26 27 28 29 30 31 32 33 34 35 36 37 38 39 40 41 42 43 44 45 46 47 48 49 50
000
ASUS44 KMEG 081510
RWRTN
TENNESSEE HOURLY STATE WEATHER ROUNDUP
NATIONAL WEATHER SERVICE MEMPHIS TN
900 AM CST THU DEC 08 2016

TNZ002-004-019-021-049-052-054-088>092-081600-
WEST TENNESSEE

CITY           SKY/WX    TMP DP  RH WIND       PRES   REMARKS
MEMPHIS INTL   CLOUDY    34  25  69 N9G18     30.51R WCI  27
NWS MEMPHIS      N/A     33 N/A N/A MISG        N/A
JACKSON        CLOUDY    33  23  66 N16       30.49R WCI  23
DYERSBURG      CLOUDY    30  19  64 N12       30.51R WCI  21
UNION CITY     SUNNY     27  16  63 NW13      30.49R WCI  16
PARIS          SUNNY     27  16  63 N12       30.46R WCI  16
HUNTINGDON     SUNNY     32  21  64 N9G16     30.46R WCI  24
LEXINGTON      SUNNY     34  21  60 N9        30.43R WCI  26
$$

TNZ008-025-027-028-033-062-065-066-081600-
NORTH MIDDLE TENNESSEE

CITY           SKY/WX    TMP DP  RH WIND       PRES   REMARKS
NASHVILLE      PTSUNNY   34  20  56 N10       30.42R WCI  26
PORTLAND       MOSUNNY   32  23  69 NW9G21    30.40R WCI  24
CLARKSVILLE    SUNNY     31  17  56 NW16      30.44R WCI  20
SMYRNA         PTSUNNY   34  20  56 NW15      30.42R WCI  24
GALLATIN       SUNNY     34  23  64 NW10G18   30.44R WCI  26
CROSSVILLE     MOSUNNY   30  19  63 W7        30.30R WCI  23
$$

TNZ061-075-076-078-094-096-097-081600-
SOUTH MIDDLE TENNESSEE

CITY           SKY/WX    TMP DP  RH WIND       PRES   REMARKS
FAYETTEVILLE   SUNNY     36  25  64 NW8       30.37R WCI  29
TULLAHOMA      SUNNY     32  21  64 N9        30.37R WCI  24
WINCHESTER     SUNNY     36  23  60 N8        30.36R WCI  29
MCMINNVILLE    SUNNY     34  21  60 NW7         N/A  WCI  28
COLUMBIA       SUNNY     36  23  60 N12       30.39R WCI  27
SHELBYVILLE    SUNNY     36  23  60 N10       30.39R WCI  28
$$

TNZ017-018-042-046-047-081600-
NORTHEAST TENNESSEE

CITY           SKY/WX    TMP DP  RH WIND       PRES   REMARKS
TRI CITIES     CLOUDY    39  18  42 W10       30.22R WCI  32
ELIZABETHTON   DRIZZLE   39  23  52 VRB7G14   30.21R WCI  34
$$

TNZ012-013-036-069-073-074-081600-
CENTRAL EAST TENNESSEE

CITY           SKY/WX    TMP DP  RH WIND       PRES   REMARKS
KNOXVILLE      CLOUDY    39  20  46 NE3       30.30R
OAK RIDGE      CLOUDY    40  18  41 CALM      30.32R
DOWNTOWN KNOXV SUNNY     39  19  45 VRB6      30.31R WCI  35
GATLINBURG     SUNNY     37  19  48 W6        30.29R WCI  33
MORRISTOWN     SUNNY     37  21  52 NW8       30.26R WCI  31
JACKSBORO      SUNNY     36  21  55 VRB5G12   30.33R WCI  32
$$

TNZ083-085-099-081600-
SOUTHEAST TENNESSEE

CITY           SKY/WX    TMP DP  RH WIND       PRES   REMARKS
CHATTANOOGA    CLOUDY    39  19  44 N12G21    30.35R WCI  32
$$

SKY/WX REPORTED AS FAIR MEANS FEW OR NO CLOUDS BELOW
12 THOUSAND FEET.





USA.gov is the U.S. government's official web portal to all federal, state and local government web resources and services.